This demonstration page uses our WeatherBlox Daily Observations layout. Learn more.

Left ArrowRight Arrow

41.12389, -100.76542

Hourly Observations for March 28, 2020

Temp ( °F °C ) Dew Point ( °F °C ) Humidity (%) Winds ( mph kmh ) Pressure ( in mb ) Visibility ( mi km ) Precip ( " mm )
12:13 am 00:13 Cloudy with Rain 43 6.1 41 5 93 93 E 9 15 29.70 1006 9 14 0.05 1.27
12:40 am 00:40 Cloudy with Light Rain 43 6.1 41 5 93 93 E 6 9 29.69 1005 10 16 0.09 2.29
12:53 am 00:53 Cloudy with Light Rain 43 6.1 41 5 93 93 E 5 7 29.67 1005 10 16 0.09 2.29
1:50 am 01:50 Cloudy with Light Rain 43 6 41 5 93 93 Calm 29.69 1005 10 16 0.06 1.52
1:53 am 01:53 Cloudy with Light Rain 43 6.1 42 5.6 97 97 SSW 5 7 29.66 1005 10 16 0.07 1.78
2:00 am 02:00 Cloudy with Light Rain 43 6.1 40 4.4 89 89 S 7 11 29.70 1006 10 16 0.00 0.00
2:08 am 02:08 Cloudy with Light Rain 43 6.1 40 4.4 89 89 VRB 3 6 29.68 1005 10 16 0.01 0.25
2:20 am 02:20 Cloudy with Light Rain 43 6.1 40 4.4 89 89 NE 7 11 29.65 1004 6 10 0.03 0.76
2:27 am 02:27 Cloudy with Light Rain 43 6.1 40 4.4 89 89 E 5 7 29.65 1004 9 14 0.04 1.02
2:35 am 02:35 Cloudy with Light Rain 43 6.1 41 5 93 93 ESE 6 9 29.66 1004 10 16 0.05 1.27
2:50 am 02:50 Cloudy with Light Rain 43 6 39 4 87 87 E 3 6 29.66 1004 10 16 0.06 1.52
2:53 am 02:53 Cloudy with Light Rain 43 6.1 40 4.4 89 89 Calm 29.63 1003 10 16 0.07 1.78
3:03 am 03:03 Cloudy with Light Rain 43 6.1 41 5 93 93 Calm 29.66 1004 9 14 0.01 0.25
3:35 am 03:35 Cloudy with Light Rain 43 6.1 40 4.4 89 89 NNE 5 7 29.65 1004 10 16 0.05 1.27
3:49 am 03:49 Cloudy with Light Rain 43 6 39 4 87 87 NE 5 7 29.64 1004 10 16 0.06 1.52
3:50 am 03:50 Cloudy with Light Rain 43 6.1 40 4.4 89 89 NE 5 7 29.60 1002 10 16 0.06 1.52
3:57 am 03:57 Cloudy with Light Rain 43 6.1 40 4.4 89 89 NE 8 13 29.63 1003 10 16 0.01 0.25
4:09 am 04:09 Cloudy with Light Rain 43 6.1 40 4.4 89 89 NE 10 17 29.62 1003 10 16 0.01 0.25
4:37 am 04:37 Cloudy with Light Rain 43 6.1 39 3.9 86 86 E 6 9 29.64 1004 10 16 0.02 0.51
4:53 am 04:53 Cloudy with Light Rain 42 5.6 39 3.9 89 89 ENE 14 22 29.56 1001 10 16 0.02 0.51
5:15 am 05:15 Cloudy with Light Rain 41 5 39 3.9 93 93 ENE 7 11 29.59 1002 10 16 0.02 0.51
5:23 am 05:23 Cloudy with Light Rain 41 5 39 3.9 93 93 ENE 10 17 29.60 1002 10 16 0.02 0.51
5:30 am 05:30 Cloudy 42 5.6 39 3.9 89 89 NE 8 13 29.59 1002 10 16 0.02 0.51
5:53 am 05:53 Cloudy 41 5 38 3.3 89 89 N 5 7 29.58 1002 10 16 0.02 0.51
6:02 am 06:02 Cloudy 41 5 38 3.3 89 89 NNW 5 7 29.62 1003 10 16 0.00 0.00
6:44 am 06:44 Cloudy with Light Rain 41 5 37 2.8 86 86 N 10 17 29.61 1003 10 16 0.00 0.00
6:53 am 06:53 Cloudy with Light Rain 41 5 37 2.8 86 86 N 10 17 29.57 1002 10 16 0.00 0.00
7:51 am 07:51 Cloudy with Light Rain 41 5 37 3 87 87 N 13 20 29.62 1003 10 16 0.02 0.51
7:53 am 07:53 Cloudy with Light Rain 41 5 37 2.8 86 86 N 12 19 29.58 1002 10 16 0.02 0.51
8:29 am 08:29 Cloudy with Light Rain 41 5 38 3.3 89 89 N 12 19 29.62 1003 10 16 0.00 0.00
8:46 am 08:46 Cloudy 42 5.6 38 3.3 85 85 N 13 20 29.61 1003 10 16 0.00 0.00
8:53 am 08:53 Cloudy 42 5.6 37 2.8 82 82 N 15 24 29.58 1002 10 16 0.00 0.00
9:15 am 09:15 Cloudy 41 5 36 2.2 82 82 NNE 16 26 29.63 1003 10 16 0.00 0.00
9:38 am 09:38 Cloudy 41 5 37 2.8 86 86 NNE 16 26 29.62 1003 10 16 0.00 0.00
9:46 am 09:46 Cloudy 41 5 37 2.8 86 86 N 17 28 29.62 1003 10 16 0.00 0.00
9:53 am 09:53 Cloudy with Light Rain 41 5 36 2.2 82 82 NNE 18 30 29.59 1002 10 16 0.00 0.00
10:28 am 10:28 Cloudy with Light Rain 40 4.4 36 2.2 86 86 N 21 33 29.63 1004 10 16 0.01 0.25
10:53 am 10:53 Cloudy with Light Rain 39 3.9 34 1.1 82 82 N 24 39 29.60 1002 10 16 0.01 0.25
11:17 am 11:17 Cloudy 39 3.9 34 1.1 82 82 N 24 39 29.66 1004 10 16 0.00 0.00
11:53 am 11:53 Cloudy with Light Rain 41 5 36 2.2 82 82 N 28 44 29.61 1003 10 16 0.00 0.00
12:00 pm 12:00 Cloudy with Light Rain 41 5 36 2.2 82 82 N 21 33 29.65 1004 10 16 0.00 0.00
12:53 pm 12:53 Cloudy with Light Rain 42 5.6 36 2.2 79 79 N 25 41 29.63 1003 10 16 0.00 0.00
1:53 pm 13:53 Cloudy with Light Rain 42 5.6 36 2.2 79 79 N 24 39 29.65 1004 10 16 0.01 0.25
2:53 pm 14:53 Cloudy with Light Rain 41 5 36 2.2 82 82 N 22 35 29.70 1006 10 16 0.04 1.02
3:46 pm 15:46 Cloudy with Light Rain 44 6.7 38 3.3 79 79 N 17 28 29.74 1007 10 16 0.02 0.51
3:53 pm 15:53 Cloudy 45 7.2 37 2.8 74 74 N 20 31 29.73 1007 10 16 0.02 0.51
4:53 pm 16:53 Cloudy with Light Rain 45 7.2 36 2.2 71 71 N 17 28 29.76 1008 10 16 0.00 0.00
5:53 pm 17:53 Cloudy 47 8.3 36 2.2 66 66 NNW 16 26 29.79 1009 10 16 0.02 0.51
6:53 pm 18:53 Cloudy 47 8.3 37 2.8 69 69 NNW 12 19 29.81 1010 10 16 0.00 0.00
7:53 pm 19:53 Sunny 44 6.7 36 2.2 73 73 NW 8 13 29.84 1011 10 16 0.00 0.00
8:53 pm 20:53 Clear 43 6.1 33 0.6 68 68 NW 10 17 29.86 1011 10 16 0.00 0.00
9:53 pm 21:53 Clear 41 5 33 0.6 73 73 NNW 7 11 29.88 1012 10 16 0.00 0.00
10:53 pm 22:53 Clear 38 3.3 32 0 79 79 NW 6 9 29.91 1013 10 16 0.00 0.00
11:53 pm 23:53 Clear 37 2.8 31 -0.6 79 79 NW 5 7 29.92 1013 10 16 0.00 0.00

Powered by AerisWeather